SCP
7 7 8 7 6 7 8 8 6 5 5 5 5 5 5 5 4 3 3 3 3 4 4 3 3 3 3 2 2 2 2 2 1 1 1 1 1 1 1 1 1 1 1
7 7 7 7 6 6 7 8 7 6 6 6 6 6 6 5 4 4 3 3 3 4 4 3 3 3 3 3 2 3 3 2 2 1 1 1 1 1 1 1 1 1 1
6 6 6 6 6 6 7 8 9 9 8 7 6 6 6 6 5 4 4 3 3 4 4 3 3 3 3 3 2 3 2 2 2 2 1 1 1 1 1 1 1 1 1
5 5 5 6 6 6 7 9 11 11 9 7 6 5 5 6 5 4 4 4 4 4 4 3 3 3 3 2 3 3 2 2 2 2 2 1 1 1 1 1 1 1 1
6 6 6 6 6 6 7 10 12 13 11 8 6 5 5 6 5 4 4 4 4 4 3 3 3 4 3 3 3 3 3 2 2 2 3 2 1 1 1 1 1 1 1
8 8 8 7 7 7 8 10 13 14 13 10 7 6 6 5 4 4 4 4 4 3 3 3 3 4 3 3 3 3 3 2 2 2 3 3 2 2 1 1 1 1 1
9 10 9 8 9 8 8 9 12 14 14 11 8 6 5 4 4 4 4 4 4 3 3 3 3 3 3 3 3 3 3 2 2 2 2 2 2 2 1 1 1 1 1
9 9 9 9 9 8 8 8 10 12 11 8 6 4 4 4 4 4 4 4 4 3 3 2 3 3 2 2 3 3 3 3 2 2 2 2 2 1 1 1 1 1 1
7 7 8 7 7 7 6 7 7 7 6 5 4 3 3 4 4 4 3 3 3 3 2 2 2 2 2 3 3 3 3 3 3 2 2 2 2 2 1 1 2 2 1
5 6 6 6 6 5 5 5 5 4 4 3 3 3 4 4 4 4 3 3 3 2 2 3 3 3 3 3 3 3 3 3 3 3 3 3 3 2 2 3 3 2 2
4 4 5 6 5 5 5 5 5 4 3 3 3 3 4 4 4 4 3 3 3 2 2 3 3 3 3 3 3 2 2 3 3 3 4 4 4 4 4 4 4 3 3
3 4 6 6 5 5 5 4 4 4 3 3 3 4 4 4 4 3 3 3 3 3 3 3 3 3 3 3 3 2 2 3 3 3 4 4 4 4 4 4 4 3 3
3 4 6 6 6 5 4 4 4 4 4 4 4 4 4 4 4 4 3 3 3 3 3 3 3 3 3 3 3 2 2 3 3 3 3 3 3 4 4 3 3 3 3
3 4 5 6 6 5 5 4 4 4 4 4 4 4 4 4 4 3 3 3 4 4 4 3 3 3 3 3 3 3 2 2 3 3 3 3 3 2 2 2 2 2 2
4 5 5 6 6 5 5 5 5 6 6 5 4 4 4 4 3 3 3 3 3 3 3 3 3 2 2 2 2 3 3 3 3 4 4 3 2 2 1 1 2 2 2
5 6 6 6 6 5 4 5 6 7 7 6 5 4 4 4 4 3 3 3 3 3 3 3 2 2 2 1 1 2 3 3 3 3 3 2 2 1 1 1 1 1 2
6 7 7 8 7 5 5 5 6 6 6 6 5 5 5 5 5 4 4 3 3 3 3 2 2 2 1 1 0 1 2 3 3 2 2 2 1 1 1 1 1 1 1
8 7 7 7 7 6 5 5 5 5 6 6 5 6 7 7 6 5 5 4 4 4 3 2 2 2 1 0 0 0 1 2 2 2 2 2 1 1 1 1 1 1 1
8 8 7 7 7 6 6 5 5 5 6 7 8 9 9 9 8 6 6 5 5 4 3 3 2 1 1 0 0 0 1 1 1 1 1 1 1 1 1 1 1 1 2
7 7 6 6 5 5 5 5 5 6 9 11 11 11 11 10 9 8 8 7 5 4 3 3 2 2 1 1 0 0 1 2 2 1 1 1 1 0 0 0 1 1 1
5 6 6 6 5 4 4 5 6 8 11 13 13 13 11 10 10 9 8 6 5 3 3 2 2 2 2 1 1 0 1 1 1 1 1 1 0 0 0 0 0 1 1
4 5 5 6 5 4 4 5 6 8 11 12 12 11 10 9 8 7 6 5 3 3 3 2 2 2 2 1 1 0 0 1 1 1 1 0 0 0 0 0 0 0 0
4 4 5 5 5 4 5 5 6 7 8 8 8 8 8 7 6 4 3 3 2 2 2 2 2 1 1 1 0 0 0 0 0 0 0 0 0 0 0 0 0 0 0
4 5 5 5 5 5 5 5 5 6 6 6 5 5 5 4 3 2 2 2 2 2 2 1 1 1 1 0 0 0 0 0 0 0 0 0 0 0 0 0 0 0 0
4 4 5 5 4 4 4 4 4 4 4 4 3 3 2 1 1 0 0 1 1 1 1 1 1 1 0 0 0 0 0 0 0 0 0 0 0 0 0 0 0 0 0
3 4 4 4 4 4 4 3 3 3 2 2 2 1 1 1 0 0 0 0 0 0 0 0 0 0 0 0 0 0 0 0 0 0 0 0 0 0 0 0 0 0 0
Wind_Speed
12 12 12 12 12 11 11 10 10 9 7 6 7 6 5 4 3 4 6 8 7 7 5 4 5 4 3 4 4 3 3 2 2 1 1 2 3 4 3 3 3 4 5
12 11 11 12 11 11 11 10 10 10 9 7 5 5 5 4 5 4 5 7 7 7 7 4 5 5 3 3 3 3 2 3 3 2 1 1 1 2 4 3 4 5 4
13 13 13 12 12 12 11 10 10 9 9 8 5 4 3 3 4 5 5 6 7 7 6 6 5 5 5 4 4 4 4 3 2 3 2 2 2 1 2 4 4 4 3
12 13 13 12 11 10 10 9 9 8 8 8 8 8 7 6 6 5 5 6 7 7 7 6 6 5 4 5 6 6 4 4 3 2 2 2 1 1 1 2 2 4 4
11 11 11 10 9 9 9 9 9 8 8 8 8 8 7 5 4 4 5 5 6 7 7 7 6 6 5 5 5 4 4 4 4 3 2 2 2 3 2 2 1 2 3
9 10 9 9 8 8 8 9 8 8 8 8 8 8 8 6 6 7 7 6 5 6 7 7 6 6 5 5 5 5 5 4 4 3 2 2 2 3 2 2 2 3 3
9 10 9 9 8 8 8 8 8 7 8 8 8 8 8 8 8 6 7 6 5 6 7 8 6 6 5 5 5 5 5 5 5 4 3 2 2 2 2 2 2 2 2
9 9 8 8 8 8 8 7 8 7 7 7 7 6 7 6 5 6 5 6 5 5 7 7 7 6 6 7 6 5 5 5 5 6 5 2 3 2 2 2 2 2 2
9 10 9 8 8 8 8 7 8 7 6 6 6 6 6 6 6 5 5 5 4 6 6 7 7 7 6 6 5 4 5 4 5 4 5 4 3 3 2 1 1 1 2
9 10 9 8 6 6 6 6 6 6 5 5 5 5 5 4 4 4 5 4 5 5 5 6 7 6 6 6 5 4 4 4 4 3 3 3 3 3 2 1 1 1 2
8 8 8 8 7 7 7 6 6 5 5 4 4 3 3 4 4 4 4 4 3 3 4 5 5 5 5 5 5 4 5 5 4 4 4 4 3 2 2 2 2 1 1
8 8 7 8 7 6 6 6 5 5 5 4 3 3 3 3 3 3 3 3 3 3 3 3 4 4 5 5 5 5 5 5 4 4 3 3 3 3 3 2 2 1 1
8 8 6 6 6 5 5 5 4 4 4 4 4 3 2 3 3 2 2 3 3 3 3 3 4 4 4 4 4 4 4 4 4 3 3 3 3 3 3 2 2 1 2
7 8 6 5 5 4 4 4 4 4 4 4 3 3 2 2 2 2 2 2 3 3 3 3 3 3 2 3 3 3 3 3 3 2 2 2 2 3 3 2 2 2 2
7 6 5 4 4 4 4 4 3 4 4 4 4 3 3 3 3 2 2 2 2 2 2 3 3 2 2 2 3 3 3 3 2 1 1 1 1 1 0 1 1 1 1
6 5 5 4 3 3 3 3 3 4 5 5 4 4 3 3 3 3 3 3 2 3 3 3 3 2 1 2 3 3 3 3 2 1 1 1 1 2 2 2 2 1 0
6 5 5 4 3 3 3 3 3 4 4 5 4 4 4 4 3 3 4 4 3 4 4 3 4 4 5 6 6 5 3 3 3 2 1 1 2 3 1 1 1 1 1
6 5 5 4 3 3 3 3 3 4 5 5 4 4 4 4 4 4 4 4 4 5 4 4 4 5 5 6 6 5 3 3 4 4 3 3 4 4 4 2 1 1 1
7 5 5 5 4 4 3 3 4 4 5 5 4 4 5 5 5 5 5 5 5 5 5 5 6 6 6 6 5 4 3 5 5 5 6 6 5 7 6 3 2 2 2
7 6 6 7 6 5 5 5 4 5 5 5 5 5 5 5 5 6 6 6 5 6 6 7 7 8 7 7 7 5 3 4 4 5 7 9 8 8 7 4 3 3 3
8 8 8 7 7 6 6 5 6 6 6 6 6 6 6 6 6 6 6 6 6 7 7 7 7 7 8 9 10 8 4 4 5 5 5 6 9 9 8 6 4 3 3
8 8 8 7 7 7 6 7 7 6 7 7 8 8 7 7 7 7 6 6 6 7 6 6 7 7 7 9 10 11 10 7 6 6 5 5 7 7 7 6 6 6 5
8 7 8 8 8 7 7 8 7 7 8 8 9 9 9 8 7 7 6 5 4 5 5 6 6 6 6 7 11 11 11 11 7 5 5 4 4 4 4 5 6 6 5
8 8 8 8 8 8 8 7 7 7 8 10 9 9 10 11 11 9 8 7 6 5 5 6 6 6 6 5 5 4 6 7 6 4 3 3 3 3 3 4 4 4 5
8 8 8 8 8 8 8 7 7 8 9 10 10 10 10 11 11 11 10 9 9 6 6 6 6 6 6 5 6 5 4 4 4 2 2 2 3 3 4 4 4 4 5
9 9 9 9 9 9 9 8 6 7 8 8 8 8 8 8 9 10 11 17 13 16 16 13 10 8 7 6 8 9 8 8 7 4 4 5 5 5 5 5 5 4 4
Wind_Direction
168 166 170 172 172 170 170 173 180 175 172 178 187 195 194 192 198 199 176 174 187 185 198 198 170 194 185 180 173 169 183 212 203 201 217 227 223 208 194 196 189 191 186
161 165 173 174 175 171 173 176 182 181 184 186 186 192 188 187 196 208 185 182 191 187 196 201 181 186 185 186 182 165 179 227 205 193 193 253 280 247 209 186 197 200 186
166 170 178 181 178 176 177 182 182 181 187 183 183 194 180 191 198 198 191 193 192 195 203 184 199 187 191 186 189 181 192 220 224 212 183 187 211 221 244 214 206 187 187
168 173 176 180 182 177 176 176 177 179 183 184 191 191 193 198 201 190 190 193 197 201 199 192 194 200 204 180 192 192 198 204 228 230 224 218 156 167 226 251 210 193 197
169 168 169 171 177 177 176 174 174 179 182 192 198 198 204 200 195 191 192 196 202 209 203 197 193 198 207 199 204 181 192 198 218 218 207 219 198 212 207 230 230 223 209
155 149 155 162 171 175 174 171 175 182 185 194 199 202 204 199 206 201 192 195 199 208 211 202 196 200 207 202 196 189 199 213 229 234 225 200 199 212 221 220 218 221 227
143 145 153 159 164 169 166 170 173 182 189 195 200 202 207 208 211 207 199 198 203 204 204 204 194 202 205 200 199 195 204 207 218 223 233 231 232 224 225 224 231 231 229
143 143 147 152 159 161 162 167 170 182 189 196 199 204 207 209 213 214 212 209 209 210 198 195 192 199 201 205 196 197 201 206 212 224 225 238 252 252 242 225 226 258 263
140 141 145 148 154 160 162 165 166 177 188 194 194 200 204 208 211 210 214 222 215 215 202 194 194 197 200 207 191 199 202 196 201 222 224 224 248 260 269 266 222 218 253
140 141 142 142 148 154 150 153 154 167 178 181 187 194 194 203 204 208 213 214 221 222 199 198 195 193 195 199 196 195 202 194 196 209 224 220 240 259 264 260 247 221 226
125 127 133 136 145 149 150 150 148 153 164 174 180 184 178 190 199 199 206 205 213 209 202 198 192 189 186 191 191 196 194 193 195 205 210 212 229 267 280 261 247 236 215
115 115 124 127 136 141 142 145 150 158 163 166 164 175 174 173 187 199 199 191 194 190 190 191 188 189 188 188 185 193 191 187 190 200 201 206 214 227 259 277 263 243 226
116 119 130 135 136 137 136 142 154 159 161 159 160 162 175 177 181 189 183 167 164 171 183 185 186 185 184 184 184 187 185 181 187 193 195 205 221 233 238 246 276 291 280
121 127 129 124 123 125 129 138 149 149 145 134 136 140 157 164 155 154 153 151 159 168 179 178 173 166 165 169 175 178 177 172 176 185 192 199 219 229 238 237 255 273 290
114 111 106 104 118 126 133 136 140 134 129 125 129 135 144 145 133 122 119 125 136 144 133 129 129 134 151 170 170 166 163 153 149 153 165 162 157 134 195 246 254 272 285
114 105 99 101 106 115 129 133 128 124 119 121 123 125 125 118 113 112 110 105 102 97 98 101 99 97 99 93 119 129 124 118 123 126 132 117 94 113 133 129 98 87 168
107 99 90 82 88 89 98 104 117 121 120 115 113 116 113 108 109 116 109 107 105 98 89 89 95 88 65 62 81 86 90 94 97 93 82 16 30 44 6 169 156 108 102
97 90 91 90 81 78 92 106 112 116 117 113 112 113 117 112 107 99 89 87 88 87 86 82 86 84 67 64 70 76 96 86 79 70 69 70 51 22 7 5 48 64 36
85 84 82 82 73 70 80 93 107 108 110 115 116 115 114 110 108 103 96 90 90 87 80 74 74 77 63 50 64 76 98 91 79 71 62 64 60 30 25 35 42 41 42
78 72 75 74 69 61 66 76 87 91 93 97 95 96 95 98 100 100 99 94 89 86 81 72 67 71 69 54 59 70 87 94 88 79 70 60 54 37 27 31 36 31 4
73 68 69 70 63 63 68 70 70 72 76 83 87 86 89 94 94 94 95 97 96 92 87 83 75 68 61 57 55 58 62 70 78 75 70 58 53 48 40 39 39 20 337
75 72 72 71 65 62 68 72 70 73 79 83 85 82 80 87 93 94 93 97 102 102 99 94 85 70 61 56 56 60 61 63 74 75 75 73 62 56 47 45 28 14 1
77 77 80 78 70 64 64 75 75 79 85 86 85 82 78 71 72 78 82 85 89 91 90 90 87 78 68 62 62 64 63 65 74 77 87 84 66 52 48 44 24 20 26
80 79 78 77 73 69 67 72 81 83 87 89 88 85 81 71 59 54 52 53 45 65 78 78 81 77 64 50 46 64 72 75 76 73 82 75 43 26 30 36 38 42 39
78 76 76 75 75 73 69 68 78 91 93 93 91 87 82 81 72 63 50 55 47 43 69 75 74 75 69 38 38 48 45 41 45 35 64 68 62 56 51 47 46 42 37
83 81 79 78 76 76 75 71 73 92 98 100 100 98 97 96 96 93 77 55 59 59 63 69 80 74 72 64 53 50 45 39 32 45 57 54 46 42 41 39 37 38 34